This demonstration page uses our WeatherBlox Daily Observations layout. Learn more.

Left ArrowRight Arrow

39.92423, -83.80882

Hourly Observations for August 28, 2019

Temp ( °F °C ) Dew Point ( °F °C ) Humidity (%) Winds ( mph kmh ) Pressure ( in mb ) Visibility ( mi km ) Precip ( " mm )
12:56 am 00:56 Clear 65 18.3 65 18.3 100 100 N N/A 29.93 1014 10 16.0934 0.01 0.254
1:56 am 01:56 Mostly Clear with Mist and Fog 64 17.8 64 17.8 100 100 WSW 3 6 29.92 1013 6 9.65604 N/A
2:56 am 02:56 Clear 65 18.3 65 18.3 100 100 W 6 9 29.92 1013 10 16.0934 N/A
3:56 am 03:56 Clear 64 17.8 64 17.8 100 100 W 7 11 29.92 1013 10 16.0934 N/A
4:56 am 04:56 Partly Cloudy 63 17.2 63 17.2 100 100 WNW 8 13 29.93 1013 10 16.0934 N/A
5:56 am 05:56 Clear 62 16.7 62 16.7 100 100 W 7 11 29.93 1014 10 16.0934 N/A
6:56 am 06:56 Clear 61 16.1 61 16.1 100 100 W 8 13 29.96 1014 10 16.0934 N/A
7:56 am 07:56 Sunny 63 17.2 63 17.2 100 100 WSW 5 7 29.96 1015 10 16.0934 N/A
8:56 am 08:56 Sunny 66 18.9 63 17.2 90 90 W 7 11 29.98 1015 10 16.0934 N/A
9:56 am 09:56 Sunny 70 21.1 60 15.6 71 71 WNW 12 19 29.98 1015 10 16.0934 N/A
10:56 am 10:56 Sunny 74 23.3 60 15.6 62 62 W 9 15 29.99 1016 10 16.0934 N/A
11:56 am 11:56 Mostly Sunny 76 24.4 55 12.8 48 48 W 17 28 29.99 1016 10 16.0934 N/A
12:56 pm 12:56 Mostly Sunny 76 24.4 54 12.2 47 47 W 16 26 29.99 1016 10 16.0934 N/A
1:56 pm 13:56 Mostly Cloudy 76 24.4 55 12.8 48 48 W 16 26 29.98 1015 10 16.0934 N/A
2:56 pm 14:56 Sunny 77 25 53 11.7 43 43 W 15 24 29.98 1015 10 16.0934 N/A
3:56 pm 15:56 Partly Cloudy 78 25.6 54 12.2 43 43 WNW 15 24 29.98 1015 10 16.0934 N/A
4:56 pm 16:56 Partly Cloudy 78 25.6 54 12.2 43 43 W 14 22 29.97 1015 10 16.0934 N/A
5:56 pm 17:56 Mostly Sunny 77 25 52 11.1 42 42 W 14 22 29.98 1015 10 16.0934 N/A
6:56 pm 18:56 Mostly Sunny 74 23.3 54 12.2 50 50 W 12 19 29.98 1015 10 16.0934 N/A
7:56 pm 19:56 Sunny 70 21.1 54 12.2 57 57 W 7 11 29.98 1015 10 16.0934 N/A
8:56 pm 20:56 Clear 64 17.8 57 13.9 78 78 W 6 9 30 1016 10 16.0934 N/A
9:56 pm 21:56 Clear 62 16.7 57 13.9 84 84 WSW 6 9 30.01 1016 10 16.0934 N/A
10:56 pm 22:56 Clear 60 15.6 57 13.9 90 90 SW 3 6 30.02 1017 10 16.0934 N/A
11:56 pm 23:56 Mostly Cloudy 60 15.6 57 13.9 90 90 SW 5 7 30.03 1017 10 16.0934 N/A

Powered by AerisWeather